Regional Weather Roundup
Issued by NWS

Home | Current Version | Previous Version | Graphics & Text | Print | Product List | Glossary On
Versions: 1 2 3 4 5 6 7 8 9 10 11 12 13 14 15 16 17 18 19 20 21 22 23 24 25 26 27 28 29 30 31 32 33 34 35 36 37 38 39 40 41 42 43 44 45 46 47 48 49 50
000
ASUS43 KFSD 061602
RWRSD

WEATHER ROUNDUP FOR SOUTH DAKOTA
NATIONAL WEATHER SERVICE SIOUX FALLS SD
1100 AM CDT MON JUL 06 2015

NOTE: "FAIR" INDICATES FEW OR NO CLOUDS BELOW 12,000 FEET WITH NO
SIGNIFICANT WEATHER AND/OR OBSTRUCTIONS TO VISIBILITY.


SDZ001>005-009-010-012>017-061700-
NORTHWEST AND NORTH CENTRAL SOUTH DAKOTA

CITY           SKY/WX    TMP DP  RH WIND       PRES   REMARKS
BUFFALO          N/A     65  51  60 N12       30.16R
FAITH            N/A     66  54  65 NW12      30.19R
MOBRIDGE       SUNNY     71  58  63 N13       30.11R HAZE
$$

SDZ012>016-024>037-041>051-057-063-072>074-061700-
SOUTHWEST AND SOUTH CENTRAL SOUTH DAKOTA

CITY           SKY/WX    TMP DP  RH WIND       PRES   REMARKS
RAPID CTY ARPT CLOUDY    61  54  77 NW14      30.24R
PIERRE         MOSUNNY   71  59  65 N14       30.10R HAZE
CUSTER         CLOUDY    54  48  80 N5        30.30R HAZE
ELLSWORTH AFB  CLOUDY    61  54  78 NW14      30.23S
PHILIP         CLOUDY    69  56  62 N13       30.17R HAZE
PINE RIDGE     CLOUDY    63  56  78 N8        30.22R HAZE
WINNER         CLOUDY    70  60  70 N17       30.10R HAZE
$$

SDZ004>011-016>023-039-040-061700-
NORTHEAST SOUTH DAKOTA

CITY           SKY/WX    TMP DP  RH WIND       PRES   REMARKS
ABERDEEN       CLOUDY    66  58  75 N20       30.08R HAZE
WATERTOWN      CLOUDY    67  58  72 N15       30.02R HAZE
BROOKINGS      CLOUDY    64  59  82 N14       30.01R
SISSETON         N/A     65  55  70 N23       30.03R
$$

SDZ017-020-022-023-036>040-048>070-061700-
SOUTHEAST SOUTH DAKOTA

CITY           SKY/WX    TMP DP  RH WIND       PRES   REMARKS
SIOUX FALLS    CLOUDY    70  64  81 N18G26    29.96R HAZE
HURON          CLOUDY    70  62  76 N16       30.03R HAZE
CHAMBERLAIN    CLOUDY    68  61  79 N12       30.07S HAZE
MITCHELL       CLOUDY    70  61  73 N14G21    30.02R HAZE
YANKTON        CLOUDY    68  64  88 N15       29.95R
$$

ABBREVIATIONS USED IN REMARKS
   TC - TEMPERATURE IN CELSIUS
  WCI - WIND CHILL INDEX
   HX - HEAT INDEX
  VSB - VISIBILITY




USA.gov is the U.S. government's official web portal to all federal, state and local government web resources and services.